This is the latest recevied weather packets stored in our database for station/object KI8L. If no packets are shown the sender has not sent any weather packets the latest 10 day(s).
| Time | Temp. | Humidity | Pressure | Rain* | Wind** | Luminosity | Snow |
|---|---|---|---|---|---|---|---|
| 1777246152 | 14.44° C | 86% | 1021.6 hPa | 0 mm | - | 27 W/m² | - |
| 1777245849 | 14.44° C | 84% | 1021.6 hPa | 0 mm | - | 28 W/m² | - |
| 1777245547 | 15° C | 84% | 1021.6 hPa | 0 mm | - | 29 W/m² | - |
| 1777245243 | 15° C | 85% | 1021.5 hPa | 0 mm | - | 30 W/m² | - |
| 1777244938 | 15° C | 83% | 1021.3 hPa | 0 mm | - | 32 W/m² | - |
| 1777244634 | 15.56° C | 82% | 1021.6 hPa | 0 mm | - | 60 W/m² | - |
| 1777244330 | 15.56° C | 82% | 1021.4 hPa | 0 mm | - | 76 W/m² | - |
| 1777244028 | 15.56° C | 80% | 1021.6 hPa | 0 mm | - | 97 W/m² | - |
| 1777243726 | 16.11° C | 79% | 1021.7 hPa | 0 mm | - | 106 W/m² | - |
| 1777243422 | 16.11° C | 78% | 1021.6 hPa | 0 mm | - | 125 W/m² | - |
| 1777243118 | 16.67° C | 74% | 1021.5 hPa | 0 mm | - | 132 W/m² | - |
| 1777242815 | 17.22° C | 72% | 1021.5 hPa | 0 mm | - | 131 W/m² | - |
| 1777242512 | 17.78° C | 73% | 1021.6 hPa | 0 mm | - | 163 W/m² | - |
| 1777242207 | 17.22° C | 72% | 1021.5 hPa | 0 mm | - | 177 W/m² | - |
| 1777241906 | 17.78° C | 70% | 1021.7 hPa | 0 mm | - | 189 W/m² | - |
| 1777241602 | 16.67° C | 70% | 1021.6 hPa | 0 mm | - | 206 W/m² | - |
| 1777241300 | 16.67° C | 70% | 1021.6 hPa | 0 mm | - | 208 W/m² | - |
| 1777240997 | 16.67° C | 70% | 1021.8 hPa | 0 mm | - | 226 W/m² | - |
| 1777240695 | 16.67° C | 70% | 1021.7 hPa | 0 mm | - | 241 W/m² | - |
| 1777240392 | 17.22° C | 73% | 1021.6 hPa | 0 mm | - | 258 W/m² | - |
| 1777240090 | 17.22° C | 73% | 1021.7 hPa | 0 mm | - | 243 W/m² | - |
| 1777239788 | 16.67° C | 74% | 1021.5 hPa | 0 mm | - | 287 W/m² | - |
| 1777239483 | 16.67° C | 71% | 1021.5 hPa | 0 mm | - | 297 W/m² | - |
| 1777239181 | 16.67° C | 70% | 1021.6 hPa | 0 mm | - | 312 W/m² | - |
| 1777238877 | 16.67° C | 73% | 1021.4 hPa | 0 mm | - | 328 W/m² | - |
* Rain latest hour (hover to see other rain measurements)
** Current wind speed in m/s (hover to see current wind gust speed)